VK3ABC-13 Weather Reports


Display with metric or nautical units.
time (UTC)temp
F
wind
direction
speed
MPH
gust
MPH
rain 1hr
in
rain 24hr
in
rain mn
in
humidity
%
barometer
mb
20260510192509 38 69 0.0 0.0 0.00 0.01 0.01 91 1029.4
20260510192010 38 69 0.0 0.0 0.00 0.01 0.01 91 1029.4
20260510191509 38 70 0.0 0.0 0.00 0.01 0.01 91 1029.4
20260510190508 39 71 0.0 0.0 0.01 0.01 0.01 91 1029.3
20260510185508 39 68 0.0 0.0 0.01 0.01 0.01 91 1029.3
20260510185010 39 69 0.0 0.0 0.01 0.01 0.01 91 1029.2
20260510184509 39 69 0.0 0.0 0.01 0.01 0.01 91 1029.2
20260510183509 39 69 0.0 0.0 0.01 0.01 0.01 91 1029.1
20260510182509 39 69 0.0 0.0 0.01 0.01 0.01 91 1028.9
20260510182010 39 70 0.0 0.0 0.01 0.01 0.01 91 1028.9
20260510181010 39 71 0.0 0.0 0.01 0.01 0.01 91 1028.9
20260510180508 39 70 0.0 0.0 0.00 0.00 0.00 91 1028.8
20260510180010 39 69 0.0 0.0 0.00 0.00 0.00 91 1028.8
20260510175509 39 71 0.0 0.0 0.00 0.00 0.00 91 1028.7
20260510175010 39 69 0.0 0.0 0.00 0.00 0.00 91 1028.7
20260510174509 39 68 0.0 0.0 0.00 0.00 0.00 91 1028.6
20260510173508 39 69 0.0 0.0 0.00 0.00 0.00 91 1028.6
20260510173013 39 68 0.0 0.0 0.00 0.00 0.00 91 1028.6
20260510172509 39 69 0.0 0.0 0.00 0.00 0.00 91 1028.6
20260510172010 39 71 0.0 0.0 0.00 0.00 0.00 91 1028.6
20260510171011 39 70 0.0 0.0 0.00 0.00 0.00 91 1028.6
20260510170011 40 69 0.0 0.0 0.00 0.00 0.00 91 1028.5
20260510165509 40 70 0.0 0.0 0.00 0.00 0.00 91 1028.5
20260510164509 40 71 0.0 0.0 0.00 0.00 0.00 91 1028.6
20260510164010 40 70 0.0 0.0 0.00 0.00 0.00 90 1028.6
20260510163508 40 68 0.0 0.0 0.00 0.00 0.00 90 1028.6
20260510163010 40 69 0.0 0.0 0.00 0.00 0.00 90 1028.7
20260510162509 40 69 0.0 0.0 0.00 0.00 0.00 90 1028.8
20260510161509 41 69 0.0 0.0 0.00 0.00 0.00 90 1028.8
20260510160509 41 69 0.0 0.0 0.00 0.00 0.00 91 1028.8
20260510160011 41 70 0.0 0.0 0.00 0.00 0.00 91 1028.8
20260510155508 41 68 0.0 0.0 0.00 0.00 0.00 91 1028.9
20260510155009 41 69 0.0 0.0 0.00 0.00 0.00 91 1028.8
20260510154509 41 71 0.0 0.0 0.00 0.00 0.00 90 1028.9
20260510154010 41 69 0.0 0.0 0.00 0.01 0.00 90 1028.8
20260510153509 41 71 0.0 0.0 0.00 0.01 0.00 90 1028.8
20260510153010 41 70 0.0 0.0 0.00 0.01 0.00 90 1028.9
20260510152508 41 68 0.0 0.0 0.00 0.01 0.00 90 1028.8
20260510152010 41 69 0.0 0.0 0.00 0.01 0.00 90 1028.8
20260510151509 41 69 0.0 0.0 0.00 0.01 0.00 90 1028.8
20260510151010 41 69 0.0 0.0 0.00 0.01 0.00 90 1028.8
20260510150509 41 69 0.0 0.0 0.00 0.01 0.00 90 1028.8
20260510150019 42 71 0.0 0.0 0.00 0.01 0.00 90 1028.9
20260510145517 42 69 0.0 0.0 0.00 0.01 0.00 90 1028.8
20260510145018 42 69 0.0 0.0 0.00 0.01 0.00 90 1028.9
20260510144018 42 69 0.0 0.0 0.00 0.01 0.00 90 1028.9
20260510143517 42 68 0.0 0.0 0.00 0.01 0.00 90 1028.9
20260510143018 42 69 0.0 0.0 0.00 0.01 0.00 90 1028.8
20260510142517 43 69 0.0 0.0 0.00 0.01 0.00 90 1028.9
20260510142018 43 69 0.0 0.0 0.00 0.01 0.00 90 1028.9
20260510141513 43 69 0.0 0.0 0.00 0.01 0.00 90 1028.9
20260510140019 43 71 0.0 0.0 0.00 0.01 0.00 89 1028.9
20260510135517 43 69 0.0 0.0 0.00 0.01 0.01 89 1029.0
20260510134517 43 71 0.0 0.0 0.00 0.01 0.01 89 1029.1
20260510134018 43 69 0.0 0.0 0.00 0.01 0.01 89 1029.1
20260510133018 43 69 0.0 0.0 0.00 0.01 0.01 89 1029.1
20260510132517 43 68 0.0 0.0 0.00 0.01 0.01 89 1029.1
20260510132018 44 69 0.0 0.0 0.00 0.01 0.01 89 1029.1
20260510131517 44 69 0.0 0.0 0.00 0.01 0.01 89 1029.1
20260510131018 44 69 0.0 0.0 0.00 0.01 0.01 89 1029.1
20260510130516 44 69 0.0 0.0 0.00 0.01 0.01 89 1029.1
20260510130019 44 69 0.0 0.0 0.00 0.01 0.01 89 1029.2
20260510125517 44 69 0.0 0.0 0.00 0.01 0.01 88 1029.2
20260510125019 44 70 0.0 0.0 0.00 0.01 0.01 89 1029.2
20260510124517 44 70 0.0 0.0 0.00 0.01 0.01 88 1029.2
20260510124018 45 69 0.0 0.0 0.00 0.01 0.01 88 1029.2
20260510123516 45 71 0.0 0.0 0.00 0.01 0.01 88 1029.2
20260510123018 45 68 0.0 0.0 0.00 0.01 0.01 88 1029.2
20260510122517 45 71 0.0 0.0 0.00 0.01 0.01 88 1029.3
20260510122018 45 69 0.0 0.0 0.00 0.01 0.01 88 1029.3
20260510121517 45 71 0.0 0.0 0.00 0.01 0.01 88 1029.3
20260510121018 46 70 0.0 0.0 0.00 0.01 0.01 88 1029.3
20260510120517 46 69 0.0 0.0 0.00 0.01 0.01 88 1029.2
20260510120019 46 69 0.0 0.0 0.00 0.01 0.01 88 1029.2
20260510115517 46 69 0.0 0.0 0.00 0.01 0.01 87 1029.3
20260510115018 46 75 0.0 0.0 0.00 0.01 0.01 88 1029.3
20260510114517 46 69 0.0 0.0 0.00 0.01 0.01 87 1029.3
20260510113516 46 69 0.0 0.0 0.00 0.01 0.01 87 1029.2
20260510113018 46 69 0.0 0.0 0.00 0.01 0.01 87 1029.1
20260510112517 46 69 0.0 0.0 0.00 0.01 0.01 87 1029.1
20260510112018 47 68 0.0 0.0 0.00 0.01 0.01 86 1029.0
20260510111517 47 71 0.0 0.0 0.00 0.01 0.01 87 1029.0
20260510111018 47 69 0.0 0.0 0.00 0.01 0.01 87 1029.0
20260510110517 47 71 0.0 0.0 0.00 0.01 0.01 86 1029.0
20260510110019 47 69 0.0 0.0 0.00 0.01 0.01 86 1028.9
20260510105517 47 69 0.0 0.0 0.00 0.01 0.01 86 1029.0
20260510104517 48 69 0.0 0.0 0.00 0.01 0.01 86 1029.0
20260510104018 48 75 0.0 0.0 0.00 0.01 0.01 86 1028.8
20260510103517 48 69 0.0 0.0 0.00 0.01 0.01 86 1028.8
20260510103018 49 70 0.0 0.0 0.00 0.01 0.01 86 1028.8
20260510102516 49 69 0.0 0.0 0.00 0.01 0.01 85 1028.8
20260510102018 49 69 0.0 0.0 0.00 0.01 0.01 85 1028.9
20260510101517 49 69 0.0 0.0 0.00 0.01 0.01 85 1028.8
20260510100517 49 71 0.0 0.0 0.00 0.01 0.01 85 1028.8
20260510100019 50 69 0.0 0.0 0.00 0.01 0.01 85 1028.8
20260510095516 50 68 0.0 0.0 0.00 0.01 0.01 84 1028.7
20260510095018 50 71 0.0 0.0 0.00 0.01 0.01 84 1028.7
20260510094516 51 69 0.0 0.0 0.00 0.01 0.01 84 1028.7
20260510094018 51 68 0.0 0.0 0.00 0.01 0.01 85 1028.7
20260510093517 51 69 0.0 0.0 0.00 0.01 0.01 85 1028.7
20260510093018 52 75 0.0 0.0 0.00 0.01 0.01 85 1028.6
20260510092517 52 69 0.0 0.0 0.00 0.01 0.01 85 1028.6
20260510092018 52 70 0.0 0.0 0.00 0.01 0.01 84 1028.6
20260510090516 52 71 0.0 0.0 0.00 0.01 0.01 84 1028.5
20260510090019 52 69 0.0 2.0 0.00 0.01 0.01 83 1028.4
20260510085516 52 64 0.0 0.0 0.00 0.01 0.01 83 1028.3
20260510085017 52 64 0.0 0.0 0.00 0.01 0.01 82 1028.3
20260510084516 52 64 0.0 0.0 0.00 0.01 0.01 80 1028.3
20260510084018 52 64 0.0 0.0 0.00 0.01 0.01 79 1028.3
20260510083517 52 63 0.0 0.0 0.00 0.01 0.01 77 1028.2
20260510083018 53 62 0.0 0.0 0.00 0.01 0.01 74 1028.2
20260510082517 53 62 0.0 0.0 0.00 0.01 0.01 73 1028.1
20260510082018 53 68 0.0 0.0 0.00 0.01 0.01 72 1028.1
20260510081516 54 62 0.0 0.0 0.00 0.01 0.01 72 1028.0
20260510081018 54 63 0.0 0.0 0.00 0.01 0.01 71 1028.0
20260510080019 55 64 0.0 0.0 0.00 0.01 0.01 71 1027.9
20260510075017 56 62 0.0 0.0 0.00 0.01 0.01 70 1027.8
20260510074516 57 66 0.0 0.0 0.00 0.01 0.01 70 1027.8
20260510074017 57 64 0.0 0.0 0.00 0.01 0.01 70 1027.7
20260510073516 58 62 0.0 0.0 0.00 0.01 0.01 70 1027.6
20260510073018 58 62 0.0 0.0 0.00 0.01 0.01 71 1027.6
20260510072516 59 63 0.0 0.0 0.00 0.01 0.01 71 1027.6
20260510072018 59 62 0.0 0.0 0.00 0.01 0.01 71 1027.6
20260510071516 59 62 0.0 0.0 0.00 0.01 0.01 71 1027.5
20260510070516 59 62 0.0 0.0 0.00 0.01 0.01 70 1027.5
20260510070018 60 65 0.0 2.0 0.00 0.01 0.01 70 1027.4
20260510065017 60 78 0.0 0.0 0.00 0.01 0.01 69 1027.4
20260510064516 60 81 0.0 0.0 0.00 0.01 0.01 68 1027.4
20260510064017 60 78 0.0 0.0 0.00 0.01 0.01 68 1027.4
20260510063516 61 81 0.0 0.0 0.00 0.01 0.01 67 1027.3
20260510063018 61 80 0.0 0.0 0.00 0.01 0.01 67 1027.3
20260510062516 61 80 0.0 0.0 0.00 0.01 0.01 66 1027.3
20260510062017 61 80 0.0 0.0 0.00 0.01 0.01 66 1027.3
20260510061516 62 78 0.0 0.0 0.00 0.01 0.01 65 1027.3
20260510061018 62 78 0.0 0.0 0.00 0.01 0.01 65 1027.3
20260510060517 62 78 0.0 3.0 0.00 0.01 0.01 64 1027.3
20260510060018 63 68 0.0 1.0 0.00 0.01 0.01 63 1027.3
20260510055516 63 68 0.0 2.0 0.00 0.01 0.01 63 1027.2
20260510055018 64 99 0.0 2.0 0.00 0.01 0.01 62 1027.2
20260510053516 64 101 2.0 3.0 0.00 0.01 0.01 61 1027.1
20260510053017 64 104 1.0 3.0 0.00 0.01 0.01 62 1027.1
20260510052516 64 97 0.0 1.0 0.00 0.01 0.01 60 1027.1
20260510052017 64 87 0.0 1.0 0.00 0.01 0.01 60 1027.1
20260510051517 64 91 1.0 3.0 0.00 0.01 0.01 61 1027.0
20260510051018 65 88 0.0 0.0 0.00 0.01 0.01 59 1027.0
20260510050517 65 97 0.0 0.0 0.00 0.01 0.01 57 1027.0
20260510050018 66 98 0.0 0.0 0.00 0.01 0.01 57 1027.0
20260510045516 67 96 0.0 1.0 0.00 0.01 0.01 56 1027.0
20260510045017 68 107 0.0 1.0 0.00 0.01 0.01 55 1027.0
20260510044516 69 96 0.0 3.0 0.00 0.01 0.01 54 1027.0
20260510043018 69 125 4.0 6.0 0.00 0.01 0.01 57 1027.0
20260510042517 68 129 3.0 7.0 0.00 0.01 0.01 57 1027.0
20260510042017 68 134 3.0 6.0 0.00 0.01 0.01 59 1027.0
20260510041517 67 99 1.0 9.0 0.00 0.01 0.01 59 1027.1
20260510040019 65 129 1.0 5.0 0.00 0.01 0.01 61 1027.2
20260510035516 65 88 1.0 5.0 0.00 0.01 0.01 59 1027.3
20260510035018 65 130 6.0 8.0 0.00 0.01 0.01 61 1027.3
20260510034516 65 119 0.0 0.0 0.00 0.01 0.01 59 1027.3
20260510034017 65 130 0.0 8.0 0.00 0.01 0.01 60 1027.3
20260510033516 65 138 2.0 5.0 0.00 0.01 0.01 61 1027.3
20260510033018 65 142 1.0 3.0 0.00 0.01 0.01 61 1027.3
20260510032516 65 99 1.0 5.0 0.00 0.01 0.01 62 1027.3
20260510032018 64 141 2.0 6.0 0.00 0.01 0.01 63 1027.3
20260510031517 64 154 3.0 7.0 0.00 0.01 0.01 63 1027.2
20260510030516 64 133 1.0 6.0 0.00 0.01 0.01 64 1027.4
20260510025516 64 136 1.0 3.0 0.00 0.01 0.01 65 1027.5
20260510025018 64 161 0.0 5.0 0.00 0.01 0.01 64 1027.5
20260510024017 64 98 3.0 9.0 0.00 0.01 0.01 64 1027.7
20260510023517 63 128 4.0 8.0 0.00 0.01 0.01 65 1027.7
20260510022516 63 194 0.0 0.0 0.00 0.01 0.01 66 1027.8
20260510022018 63 188 0.0 0.0 0.00 0.01 0.01 67 1027.9
20260510021018 62 182 0.0 0.0 0.00 0.01 0.01 68 1028.1
20260510020516 62 176 0.0 0.0 0.00 0.01 0.01 68 1028.2
20260510020018 61 174 0.0 0.0 0.00 0.01 0.01 69 1028.2
20260510015516 61 183 0.0 1.0 0.00 0.01 0.01 69 1028.3
20260510015018 61 141 0.0 3.0 0.00 0.01 0.01 68 1028.4
20260510014018 61 95 0.0 3.0 0.00 0.01 0.01 71 1028.5
20260510013516 61 82 0.0 0.0 0.00 0.01 0.01 71 1028.5
20260510013018 60 81 0.0 2.0 0.00 0.01 0.01 72 1028.6
20260510012516 60 81 0.0 1.0 0.00 0.01 0.01 72 1028.6
20260510012017 60 85 0.0 2.0 0.00 0.01 0.01 73 1028.7
20260510011516 60 122 1.0 2.0 0.00 0.01 0.01 75 1028.7
20260510010516 59 101 1.0 3.0 0.00 0.01 0.01 77 1028.7
20260510005516 59 134 1.0 3.0 0.00 0.01 0.01 81 1028.6
20260510005017 59 108 2.0 6.0 0.00 0.01 0.01 82 1028.6
20260510004516 59 138 1.0 5.0 0.00 0.01 0.01 84 1028.6
20260510004018 58 116 1.0 5.0 0.00 0.01 0.01 85 1028.6
20260510003516 58 126 0.0 0.0 0.00 0.01 0.01 87 1028.6
20260510003017 58 127 0.0 0.0 0.00 0.01 0.01 88 1028.6
20260510002516 58 128 0.0 2.0 0.00 0.01 0.01 89 1028.6
20260510002017 58 129 2.0 6.0 0.00 0.01 0.01 91 1028.6
20260510001516 58 122 0.0 2.0 0.00 0.01 0.01 92 1028.5
20260510000517 58 123 1.0 6.0 0.00 0.01 0.01 92 1028.6
20260510000019 58 129 2.0 5.0 0.00 0.01 0.01 92 1028.6
20260509235516 58 145 0.0 2.0 0.00 0.01 0.01 92 1028.5
20260509235018 57 147 0.0 2.0 0.00 0.01 0.01 92 1028.5
20260509234516 57 150 0.0 2.0 0.00 0.01 0.01 92 1028.5
20260509234017 57 144 1.0 2.0 0.00 0.01 0.01 92 1028.5
20260509233516 57 152 0.0 1.0 0.00 0.01 0.01 92 1028.4
20260509233017 57 197 0.0 0.0 0.00 0.01 0.01 92 1028.4
20260509231516 56 193 0.0 0.0 0.00 0.01 0.01 92 1028.4
20260509231018 56 192 0.0 0.0 0.00 0.01 0.01 92 1028.4
20260509230516 56 190 0.0 0.0 0.00 0.01 0.01 92 1028.4
20260509230018 56 191 0.0 0.0 0.00 0.01 0.01 92 1028.4
20260509225516 56 193 0.0 0.0 0.00 0.01 0.01 92 1028.3
20260509225017 55 198 0.0 0.0 0.00 0.01 0.01 92 1028.3
20260509224017 55 195 0.0 0.0 0.00 0.01 0.01 92 1028.3
20260509223516 55 198 0.0 0.0 0.00 0.01 0.01 92 1028.2
20260509222516 55 197 0.0 0.0 0.00 0.01 0.01 92 1028.1
20260509221516 54 191 0.0 0.0 0.00 0.01 0.01 92 1028.0
20260509221017 54 193 0.0 0.0 0.00 0.01 0.01 92 1027.9
20260509220516 54 193 0.0 0.0 0.00 0.01 0.01 92 1027.9
20260509215516 54 192 0.0 0.0 0.00 0.01 0.01 92 1027.7
20260509215017 54 197 0.0 0.0 0.00 0.01 0.01 92 1027.7
20260509214516 54 193 0.0 0.0 0.00 0.01 0.01 92 1027.6
20260509214017 54 199 0.0 0.0 0.00 0.01 0.01 92 1027.5
20260509213515 53 194 0.0 0.0 0.00 0.01 0.01 92 1027.4
20260509213017 53 191 0.0 0.0 0.00 0.01 0.01 92 1027.4
20260509212516 53 202 0.0 1.0 0.00 0.01 0.01 91 1027.2
20260509212017 53 192 0.0 2.0 0.00 0.01 0.01 91 1027.1
20260509211516 53 192 0.0 1.0 0.00 0.01 0.01 91 1027.1
20260509211018 53 189 0.0 0.0 0.00 0.01 0.01 91 1027.1
20260509210515 53 187 0.0 0.0 0.00 0.02 0.01 91 1027.1
20260509210018 53 190 0.0 0.0 0.00 0.02 0.01 91 1027.1
20260509205516 53 191 0.0 0.0 0.00 0.02 0.01 91 1027.0
20260509205017 53 188 0.0 0.0 0.00 0.02 0.01 91 1026.9
20260509204516 53 190 0.0 0.0 0.00 0.02 0.01 91 1026.9
20260509203516 53 191 0.0 0.0 0.00 0.02 0.01 91 1026.8
20260509202516 53 192 0.0 0.0 0.00 0.02 0.01 91 1026.7
20260509202017 53 191 0.0 0.0 0.00 0.02 0.01 91 1026.7
20260509201515 53 196 0.0 0.0 0.00 0.02 0.01 91 1026.7
20260509200515 54 195 0.0 0.0 0.00 0.02 0.01 91 1026.5
20260509200018 54 190 0.0 0.0 0.00 0.02 0.01 91 1026.5
20260509195516 54 187 0.0 0.0 0.00 0.02 0.01 91 1026.5
20260509195017 54 190 0.0 0.0 0.00 0.02 0.01 91 1026.4
20260509194516 54 191 0.0 0.0 0.00 0.02 0.01 91 1026.4
20260509193516 54 191 0.0 0.0 0.00 0.02 0.01 91 1026.3